Weather History for New Bern, NC

Change the Weather History Date:

Wednesday, November 28, 2012

  Actual Average Record
Temperature  
Mean Temperature 41 °F 52 °F  
Max Temperature 52 °F 63 °F 81 °F (2001)
Min Temperature 30 °F 40 °F 26 °F (1956)
Degree Days  
Heating Degree Days 24 14  
Month to date heating degree days 385 282  
Since 1 July heating degree days 487 399  
Cooling Degree Days 0 0  
Month to date cooling degree days 0 14  
Year to date cooling degree days 2025 1899  
Moisture  
Dew Point 35 °F    
Average Humidity 71    
Maximum Humidity 96    
Minimum Humidity 46    
Precipitation  
Precipitation T in 0.12 in 2.92 in (1988)
Month to date precipitation 0.91 3.16  
Year to date precipitation 47.67 49.11  
Snow  
Snow 0.00 in - - ()
Month to date snowfall 0.0  
Since 1 July snowfall 0.0  
Snow Depth 0.00 in    
Sea Level Pressure  
Sea Level Pressure 30.31 in    
Wind  
Wind Speed 7 mph (North)    
Max Wind Speed 17 mph    
Max Gust Speed 23 mph    
Visibility 8 miles    
Events Rain    
T = Trace of Precipitation, MM = Missing Value Source: NWS Daily Summary

Daily Weather History Graph

Daily Weather History Graph

Search for Another Location

Airport:

Trip Planner

Search our weather history database for the weather conditions in past years. The results will help you decide how hot, cold, wet, or windy it might be!

Date:

Astronomy

Nov. 28, 2012 Rise Set
Actual Time 6:55 AM EST 4:56 PM EST
Civil Twilight 6:28 AM EST 5:24 PM EST
Nautical Twilight 5:56 AM EST 5:55 PM EST
Astronomical Twilight 5:26 AM EST 6:26 PM EST
Moon 5:10 PM EST (11/28) 6:51 AM EST (11/28)
Length of Visible Light 10h 56m
Length of Day
10h 01m
Full, 100% of the Moon is Illuminated
Nov 28
Full
Dec 6
Last Quarter
Dec 13
New
Dec 20
First Quarter
Dec 28
Full

Hourly Weather History & Observations

Time (EST) Temp. Windchill Dew Point Humidity Pressure Visibility Wind Dir Wind Speed Gust Speed Precip Events Conditions
12:13 AM 46.4 °F 42.4 °F 44.6 °F 93% 30.20 in 6.0 mi North 8.1 mph - 0.00 in Rain Light Rain
12:25 AM 46.4 °F 42.9 °F 44.6 °F 93% 30.20 in 6.0 mi North 6.9 mph - 0.00 in   Overcast
12:54 AM 46.9 °F - 45.0 °F 93% 30.19 in 6.0 mi North 8.1 mph - 0.00 in   Overcast
1:54 AM 46.9 °F - 44.1 °F 90% 30.20 in 7.0 mi North 10.4 mph - N/A   Overcast
2:54 AM 45.0 °F 38.5 °F 42.1 °F 90% 30.21 in 7.0 mi North 13.8 mph - N/A   Overcast
3:54 AM 43.0 °F 37.7 °F 41.0 °F 93% 30.22 in 7.0 mi North 9.2 mph - N/A   Overcast
4:54 AM 43.0 °F 36.8 °F 39.9 °F 89% 30.23 in 6.0 mi North 11.5 mph - N/A   Overcast
5:54 AM 42.1 °F 35.7 °F 39.0 °F 89% 30.25 in 9.0 mi NNE 11.5 mph - N/A   Overcast
6:28 AM 41.0 °F 35.2 °F 37.4 °F 87% 30.27 in 10.0 mi NNE 9.2 mph - N/A   Mostly Cloudy
6:35 AM 41.0 °F 36.4 °F 37.4 °F 87% 30.27 in 10.0 mi North 6.9 mph - N/A   Scattered Clouds
6:54 AM 39.9 °F 34.5 °F 37.0 °F 89% 30.28 in 10.0 mi NNE 8.1 mph - N/A   Clear
7:54 AM 39.9 °F 35.1 °F 37.0 °F 89% 30.30 in 7.0 mi North 6.9 mph - N/A   Clear
8:54 AM 42.1 °F 36.1 °F 37.0 °F 82% 30.31 in 10.0 mi North 10.4 mph - N/A   Clear
9:54 AM 46.0 °F 41.4 °F 37.0 °F 71% 30.32 in 10.0 mi North 9.2 mph - N/A   Clear
10:54 AM 48.0 °F - 34.0 °F 58% 30.33 in 10.0 mi NNE 11.5 mph - N/A   Clear
11:54 AM 50.0 °F - 34.0 °F 54% 30.32 in 10.0 mi North 13.8 mph 20.7 mph N/A   Clear
12:54 PM 51.1 °F - 32.0 °F 48% 30.31 in 10.0 mi NNW 12.7 mph 21.9 mph N/A   Clear
1:54 PM 51.1 °F - 32.0 °F 48% 30.29 in 10.0 mi NW 11.5 mph 16.1 mph N/A   Clear
2:54 PM 51.1 °F - 32.0 °F 48% 30.29 in 10.0 mi NNW 8.1 mph 16.1 mph N/A   Clear
3:54 PM 50.0 °F - 30.9 °F 48% 30.30 in 10.0 mi NNW 6.9 mph - N/A   Clear
4:54 PM 46.9 °F - 32.0 °F 56% 30.32 in 10.0 mi NNW 5.8 mph - N/A   Clear
5:54 PM 41.0 °F - 32.0 °F 70% 30.33 in 10.0 mi Calm Calm - N/A   Clear
6:54 PM 36.0 °F - 32.0 °F 86% 30.36 in 10.0 mi Calm Calm - N/A   Clear
7:54 PM 36.0 °F - 30.9 °F 82% 30.38 in 10.0 mi Calm Calm - N/A   Clear
8:54 PM 34.0 °F - 32.0 °F 92% 30.39 in 8.0 mi Calm Calm - N/A   Clear
9:54 PM 33.1 °F - 28.9 °F 85% 30.40 in 10.0 mi Calm Calm - N/A   Clear
10:31 PM 33.8 °F - 32.0 °F 93% 30.39 in 1.8 mi Calm Calm - N/A   Clear
10:41 PM 32.0 °F 28.7 °F 32.0 °F 100% 30.40 in 0.8 mi SSW 3.5 mph - N/A   Clear
10:45 PM 32.0 °F - 30.2 °F 93% 30.40 in 2.5 mi Calm Calm - N/A   Clear
10:52 PM 32.0 °F 28.7 °F 30.2 °F 93% 30.40 in 7.0 mi SSW 3.5 mph - N/A   Clear
10:54 PM 32.0 °F - 30.0 °F 92% 30.40 in 7.0 mi Calm Calm - N/A   Clear
11:54 PM 30.0 °F - 28.9 °F 96% 30.40 in 7.0 mi Calm Calm - N/A   Partly Cloudy